When you browse on this site, cookies collect data to enhance your experience and personalize the content and advertising you see.
Visit our Privacy Policy to learn more. By continuing to use the site, you agree to this use of cookies and data.
  • En España
  • Lista de países
  • Para 7 días
  • Temperatura del agua
  • El tiempo en el mapa
  • Informadores
  • user-avatar
    Iniciar sesión

    Tiempo cada hora Peñaflor

    Hoy, 25 Enero, Sábado

    Tiempo Temperatura Precipitaciones Viento Presión Humedad
    00:00 +16°C° 0 mm 0 mps 729 mmHg 66%
    01:00 +15°C° 0 mm 0 mps 729 mmHg 67%
    02:00 +15°C° 0 mm 0 mps 729 mmHg 67%
    03:00 +15°C° 0 mm 0 mps 729 mmHg 68%
    04:00 +15°C° 0 mm 0 mps 729 mmHg 68%
    05:00 +17°C° 0 mm 0 mps 729 mmHg 60%
    06:00 +20°C° 0 mm 0 mps 730 mmHg 51%
    07:00 +22°C° 0 mm 0 mps 731 mmHg 49%
    08:00 +27°C° 0 mm 1 mps 731 mmHg 42%
    09:00 +30°C° 0 mm 2 mps 731 mmHg 35%
    10:00 +33°C° 0 mm 3 mps 731 mmHg 28%
    11:00 +35°C° 0 mm 3 mps 731 mmHg 24%
    12:00 +36°C° 0 mm 4 mps 731 mmHg 20%
    13:00 +38°C° 0 mm 4 mps 731 mmHg 16%
    14:00 +37°C° 0 mm 5 mps 731 mmHg 17%
    15:00 +36°C° 0 mm 5 mps 730 mmHg 18%
    16:00 +35°C° 0 mm 5 mps 730 mmHg 19%
    17:00 +32°C° 0 mm 4 mps 730 mmHg 24%
    18:00 +27°C° 0 mm 3 mps 730 mmHg 30%
    19:00 +24°C° 0 mm 2 mps 730 mmHg 35%
    20:00 +22°C° 0 mm 1 mps 730 mmHg 40%
    21:00 +21°C° 0 mm 1 mps 730 mmHg 45%
    22:00 +17°C° 0 mm 0 mps 730 mmHg 50%
    23:00 +17°C° 0 mm 0 mps 730 mmHg 49%

    Mañana, 26 Enero, Domingo

    Tiempo Temperatura Precipitaciones Viento Presión Humedad
    00:00 +17°C° 0 mm 0 mps 730 mmHg 49%
    01:00 +17°C° 0 mm 0 mps 729 mmHg 48%
    02:00 +17°C° 0 mm 0 mps 730 mmHg 48%
    03:00 +16°C° 0 mm 0 mps 730 mmHg 48%
    04:00 +16°C° 0 mm 0 mps 730 mmHg 48%
    05:00 +18°C° 0 mm 0 mps 730 mmHg 42%
    06:00 +21°C° 0 mm 0 mps 731 mmHg 36%
    07:00 +23°C° 0 mm 0 mps 732 mmHg 31%
    08:00 +28°C° 0 mm 1 mps 732 mmHg 26%
    09:00 +30°C° 0 mm 2 mps 732 mmHg 22%
    10:00 +34°C° 0 mm 3 mps 732 mmHg 17%
    11:00 +35°C° 0 mm 3 mps 732 mmHg 17%
    12:00 +36°C° 0 mm 4 mps 732 mmHg 16%
    13:00 +39°C° 0 mm 5 mps 732 mmHg 15%
    14:00 +37°C° 0 mm 5 mps 731 mmHg 17%
    15:00 +36°C° 0 mm 5 mps 731 mmHg 20%
    16:00 +35°C° 0 mm 5 mps 731 mmHg 22%
    17:00 +32°C° 0 mm 4 mps 731 mmHg 31%
    18:00 +27°C° 0 mm 3 mps 731 mmHg 40%
    19:00 +24°C° 0 mm 2 mps 730 mmHg 49%
    20:00 +22°C° 0 mm 1 mps 730 mmHg 54%
    21:00 +21°C° 0 mm 1 mps 730 mmHg 60%
    22:00 +18°C° 0 mm 0 mps 730 mmHg 65%
    23:00 +18°C° 0 mm 0 mps 730 mmHg 64%

    Pasado mañana, 27 Enero, Lunes

    Tiempo Temperatura Precipitaciones Viento Presión Humedad
    00:00 +18°C° 0 mm 0 mps 729 mmHg 63%
    01:00 +18°C° 0 mm 0 mps 729 mmHg 62%
    02:00 +18°C° 0 mm 0 mps 729 mmHg 61%
    03:00 +18°C° 0 mm 0 mps 729 mmHg 60%
    04:00 +18°C° 0 mm 0 mps 729 mmHg 59%
    05:00 +20°C° 0 mm 0 mps 729 mmHg 52%
    06:00 +22°C° 0 mm 0 mps 729 mmHg 45%
    07:00 +25°C° 0 mm 0 mps 729 mmHg 38%
    08:00 +29°C° 0 mm 1 mps 730 mmHg 34%
    09:00 +32°C° 0 mm 2 mps 730 mmHg 29%
    10:00 +35°C° 0 mm 3 mps 730 mmHg 25%
    11:00 +36°C° 0 mm 4 mps 730 mmHg 23%
    12:00 +39°C° 0 mm 5 mps 730 mmHg 20%
    13:00 +40°C° 0 mm 5 mps 730 mmHg 18%
    14:00 +39°C° 0 mm 5 mps 729 mmHg 19%
    15:00 +36°C° 0 mm 6 mps 729 mmHg 21%
    16:00 +35°C° 0 mm 6 mps 729 mmHg 22%
    17:00 +30°C° 0 mm 4 mps 729 mmHg 27%
    18:00 +27°C° 0 mm 3 mps 729 mmHg 32%
    19:00 +23°C° 0 mm 2 mps 729 mmHg 37%
    20:00 +22°C° 0 mm 1 mps 729 mmHg 44%
    21:00 +20°C° 0 mm 1 mps 729 mmHg 50%
    22:00 +16°C° 0 mm 0 mps 729 mmHg 56%
    23:00 +16°C° 0 mm 0 mps 729 mmHg 58%

    28 Enero, Martes

    Tiempo Temperatura Precipitaciones Viento Presión Humedad
    00:00 +16°C° 0 mm 0 mps 728 mmHg 59%
    01:00 +15°C° 0 mm 0 mps 728 mmHg 61%
    02:00 +15°C° 0 mm 0 mps 728 mmHg 60%
    03:00 +15°C° 0 mm 0 mps 728 mmHg 60%
    04:00 +15°C° 0 mm 0 mps 727 mmHg 59%
    05:00 +17°C° 0 mm 0 mps 728 mmHg 53%
    06:00 +21°C° 0 mm 1 mps 728 mmHg 46%
    07:00 +23°C° 0 mm 1 mps 728 mmHg 39%
    08:00 +25°C° 0 mm 1 mps 728 mmHg 34%
    09:00 +28°C° 0 mm 2 mps 728 mmHg 28%
    10:00 +31°C° 0 mm 3 mps 728 mmHg 23%
    11:00 +33°C° 0 mm 4 mps 728 mmHg 22%
    12:00 +34°C° 0 mm 5 mps 728 mmHg 21%
    13:00 +36°C° 0 mm 6 mps 728 mmHg 20%
    14:00 +34°C° 0 mm 6 mps 728 mmHg 24%
    15:00 +32°C° 0 mm 6 mps 728 mmHg 28%
    16:00 +30°C° 0 mm 6 mps 728 mmHg 32%
    17:00 +27°C° 0 mm 5 mps 728 mmHg 43%
    18:00 +24°C° 0 mm 3 mps 729 mmHg 54%
    19:00 +20°C° 0 mm 2 mps 729 mmHg 65%
    20:00 +19°C° 0 mm 2 mps 729 mmHg 71%
    21:00 +19°C° 0 mm 1 mps 729 mmHg 77%
    22:00 +16°C° 0 mm 1 mps 729 mmHg 83%
    23:00 +16°C° 0 mm 1 mps 728 mmHg 84%

    29 Enero, Miércoles

    Tiempo Temperatura Precipitaciones Viento Presión Humedad
    00:00 +15°C° 0 mm 0 mps 728 mmHg 85%
    01:00 +14°C° 0 mm 0 mps 728 mmHg 86%
    02:00 +14°C° 0 mm 0 mps 728 mmHg 86%
    03:00 +14°C° 0 mm 0 mps 728 mmHg 86%
    04:00 +14°C° 0 mm 0 mps 728 mmHg 86%
    05:00 +15°C° 0 mm 0 mps 728 mmHg 77%
    06:00 +17°C° 0 mm 0 mps 729 mmHg 69%
    07:00 +21°C° 0 mm 1 mps 729 mmHg 61%
    08:00 +24°C° 0 mm 1 mps 729 mmHg 53%
    09:00 +26°C° 0 mm 2 mps 730 mmHg 44%
    10:00 +29°C° 0 mm 3 mps 730 mmHg 36%
    11:00 +30°C° 0 mm 3 mps 730 mmHg 32%
    12:00 +33°C° 0 mm 4 mps 730 mmHg 28%
    13:00 +34°C° 0 mm 5 mps 730 mmHg 25%
    14:00 +33°C° 0 mm 5 mps 730 mmHg 26%
    15:00 +32°C° 0 mm 5 mps 730 mmHg 27%
    16:00 +32°C° 0 mm 5 mps 729 mmHg 28%
    17:00 +27°C° 0 mm 4 mps 730 mmHg 34%
    18:00 +24°C° 0 mm 3 mps 730 mmHg 41%
    19:00 +20°C° 0 mm 2 mps 730 mmHg 47%
    20:00 +19°C° 0 mm 1 mps 730 mmHg 51%
    21:00 +18°C° 0 mm 1 mps 730 mmHg 55%
    22:00 +15°C° 0 mm 0 mps 730 mmHg 59%
    23:00 +14°C° 0 mm 0 mps 729 mmHg 58%

    30 Enero, Jueves

    Tiempo Temperatura Precipitaciones Viento Presión Humedad
    00:00 +14°C° 0 mm 0 mps 729 mmHg 58%
    01:00 +14°C° 0 mm 0 mps 728 mmHg 57%
    02:00 +14°C° 0 mm 0 mps 728 mmHg 55%
    03:00 +14°C° 0 mm 0 mps 728 mmHg 54%
    04:00 +16°C° 0 mm 1 mps 728 mmHg 52%
    05:00 +17°C° 0 mm 0 mps 729 mmHg 45%
    06:00 +19°C° 0 mm 0 mps 729 mmHg 38%
    07:00 +22°C° 0 mm 0 mps 729 mmHg 31%
    08:00 +27°C° 0 mm 1 mps 729 mmHg 27%
    09:00 +29°C° 0 mm 2 mps 730 mmHg 23%
    10:00 +32°C° 0 mm 2 mps 730 mmHg 19%
    11:00 +34°C° 0 mm 3 mps 730 mmHg 17%
    12:00 +36°C° 0 mm 4 mps 730 mmHg 15%
    13:00 +37°C° 0 mm 4 mps 729 mmHg 13%
    14:00 +36°C° 0 mm 5 mps 729 mmHg 14%
    15:00 +35°C° 0 mm 5 mps 729 mmHg 14%
    16:00 +35°C° 0 mm 5 mps 729 mmHg 15%
    17:00 +30°C° 0 mm 4 mps 729 mmHg 21%
    18:00 +26°C° 0 mm 3 mps 729 mmHg 27%
    19:00 +21°C° 0 mm 2 mps 729 mmHg 33%
    20:00 +20°C° 0 mm 1 mps 729 mmHg 38%
    21:00 +19°C° 0 mm 1 mps 729 mmHg 44%
    22:00 +15°C° 0 mm 0 mps 729 mmHg 50%
    23:00 +15°C° 0 mm 0 mps 729 mmHg 48%
    Mostrar más